Wheeling, WV

7:03 AM EDT on October 20, 2017 (GMT -0400)
Wheeling-Ohio County

Weather History for KHLG - August, 2013

Change the Weather History Date:

Wednesday, August 21, 2013

  Actual Average Record
Temperature  
Mean Temperature 71 °F 71 °F  
Max Temperature 82 °F 81 °F 101 °F (1936)
Min Temperature 59 °F 61 °F 40 °F (1922)
Degree Days  
Heating Degree Days 0 0  
Month to date heating degree days 14 0  
Since 1 June heating degree days 37 41  
Since 1 July heating degree days 16 3  
Cooling Degree Days 6    
Month to date cooling degree days 80  
Year to date cooling degree days 552  
Since 1 June cooling degree days 446  
Growing Degree Days 20 (Base 50)    
Moisture  
Dew Point 63 °F    
Average Humidity 77    
Maximum Humidity 100    
Minimum Humidity 54    
Precipitation  
Precipitation 0.00 in 0.12 in 1.83 in (1912)
Month to date precipitation 2.20 2.23  
Year to date precipitation 26.25  
Sea Level Pressure  
Sea Level Pressure 30.17 in    
Wind  
Wind Speed 1 mph (SW)    
Max Wind Speed 8 mph    
Max Gust Speed 12 mph    
Visibility 6 miles    
Events      
T = Trace of Precipitation, MM = Missing Value Source: NWS Daily Summary

Daily Weather History Graph

Daily Weather History Graph

Search for Another Location

Airport or City:

Trip Planner

Search our weather history database for the weather conditions in past years. The results will help you decide how hot, cold, wet, or windy it might be!

Date:

Astronomy

Aug. 21, 2013 Rise Set
Actual Time 6:39 AM EDT 8:10 PM EDT
Civil Twilight 6:11 AM EDT 8:39 PM EDT
Nautical Twilight 5:36 AM EDT 9:13 PM EDT
Astronomical Twilight 5:00 AM EDT 9:49 PM EDT
Moon 8:18 PM EDT (8/21) 7:18 AM EDT (8/21)
Length of Visible Light 14h 27m
Length of Day
13h 30m
Full, 100% of the Moon is Illuminated
Aug 21
Full
Aug 28
Last Quarter
Sep 5
New
Sep 12
First Quarter
Sep 19
Full

Hourly Weather History & Observations

Time (EDT) Temp. Heat Index Dew Point Humidity Pressure Visibility Wind Dir Wind Speed Gust Speed Precip Events Conditions
12:53 AM 64.9 °F - 61.0 °F 87% 30.19 in 8.0 mi Calm Calm - N/A   Clear
1:53 AM 64.9 °F - 61.0 °F 87% 30.19 in 8.0 mi Calm Calm - N/A   Clear
2:53 AM 64.0 °F - 61.0 °F 90% 30.18 in 7.0 mi Calm Calm - N/A   Clear
3:53 AM 63.0 °F - 61.0 °F 93% 30.18 in 6.0 mi Calm Calm - N/A   Clear
4:53 AM 62.1 °F - 60.1 °F 93% 30.18 in 4.0 mi Calm Calm - N/A   Clear
5:45 AM 60.8 °F - 60.8 °F 100% 30.19 in 2.5 mi Calm Calm - N/A   Clear
5:53 AM 61.0 °F - 60.1 °F 97% 30.18 in 2.5 mi Calm Calm - N/A   Clear
6:06 AM 60.8 °F - 59.0 °F 94% 30.19 in 4.0 mi Calm Calm - N/A   Clear
6:44 AM 60.8 °F - 60.8 °F 100% 30.20 in 2.0 mi Calm Calm - N/A   Clear
6:53 AM 60.1 °F - 59.0 °F 96% 30.19 in 2.0 mi Calm Calm - N/A   Clear
7:01 AM 60.8 °F - 59.0 °F 94% 30.20 in 1.8 mi Calm Calm - N/A   Clear
7:08 AM 60.8 °F - 59.0 °F 94% 30.20 in 2.0 mi Calm Calm - N/A   Clear
7:33 AM 60.8 °F - 60.8 °F 100% 30.21 in 1.2 mi Calm Calm - N/A   Clear
7:53 AM 62.1 °F - 61.0 °F 96% 30.20 in 2.0 mi Calm Calm - N/A   Clear
8:09 AM 62.6 °F - 60.8 °F 94% 30.21 in 3.0 mi Calm Calm - N/A   Clear
8:53 AM 66.9 °F - 64.0 °F 90% 30.21 in 5.0 mi Calm Calm - N/A   Clear
9:53 AM 71.1 °F - 64.9 °F 81% 30.21 in 9.0 mi Calm Calm - N/A   Overcast
10:53 AM 73.0 °F - 66.9 °F 81% 30.22 in 9.0 mi Calm Calm - N/A   Overcast
11:53 AM 75.9 °F - 64.9 °F 69% 30.21 in 10.0 mi Calm Calm - N/A   Clear
12:53 PM 78.1 °F - 62.1 °F 58% 30.19 in 10.0 mi Calm Calm - N/A   Clear
1:53 PM 81.0 °F 82.2 °F 63.0 °F 54% 30.17 in 10.0 mi Calm Calm - N/A   Clear
2:53 PM 79.0 °F - 64.0 °F 60% 30.16 in 10.0 mi Calm Calm - N/A   Overcast
3:53 PM 81.0 °F 82.2 °F 63.0 °F 54% 30.12 in 10.0 mi Calm Calm - N/A   Partly Cloudy
4:53 PM 80.1 °F 81.9 °F 64.9 °F 60% 30.12 in 10.0 mi Calm Calm - N/A   Clear
5:53 PM 78.1 °F - 64.0 °F 62% 30.11 in 10.0 mi WNW 3.5 mph - N/A   Clear
6:53 PM 78.1 °F - 61.0 °F 56% 30.09 in 10.0 mi Calm Calm - N/A   Clear
7:53 PM 75.9 °F - 64.9 °F 69% 30.09 in 10.0 mi Calm Calm - N/A   Clear
8:53 PM 73.0 °F - 66.0 °F 79% 30.09 in 9.0 mi ESE 5.8 mph - N/A   Clear
9:53 PM 71.1 °F - 66.9 °F 87% 30.10 in 7.0 mi SSW 3.5 mph - N/A   Partly Cloudy
10:53 PM 71.1 °F - 68.0 °F 90% 30.12 in 6.0 mi WSW 3.5 mph - N/A   Scattered Clouds
11:53 PM 70.0 °F - 66.9 °F 90% 30.12 in 6.0 mi SW 5.8 mph - N/A   Mostly Cloudy